IK6IHU-3 Weather Reports


time (UTC)temp
C
wind
direction
speed
KPH
gust
KPH
rain 1hr
cm
rain 24hr
cm
rain mn
cm
humidity
%
barometer
mb
20260504035120 15 287 1.6 3.2 0.00 0.00 0.00 49 1016.7
20260504035020 15 287 0.0 3.2 0.00 0.00 0.00 48 1016.6
20260504034920 15 289 0.0 3.2 0.00 0.00 0.00 48 1016.5
20260504034820 16 292 0.0 3.2 0.00 0.00 0.00 48 1016.6
20260504034720 16 292 1.6 3.2 0.00 0.00 0.00 46 1016.8
20260504034620 16 290 1.6 3.2 0.00 0.00 0.00 46 1016.7
20260504034520 16 288 3.2 3.2 0.00 0.00 0.00 46 1016.6
20260504034420 16 288 3.2 6.4 0.00 0.00 0.00 46 1016.7
20260504034320 16 288 3.2 6.4 0.00 0.00 0.00 47 1016.7
20260504034220 16 288 3.2 6.4 0.00 0.00 0.00 47 1016.6
20260504034120 16 289 3.2 6.4 0.00 0.00 0.00 47 1016.6
20260504034020 15 289 1.6 6.4 0.00 0.00 0.00 48 1016.6
20260504033920 15 289 1.6 6.4 0.00 0.00 0.00 49 1016.6
20260504033820 15 289 1.6 6.4 0.00 0.00 0.00 50 1016.7
20260504033719 15 289 0.0 6.4 0.00 0.00 0.00 50 1016.6
20260504033620 15 290 3.2 6.4 0.00 0.00 0.00 49 1016.6
20260504033520 15 292 3.2 6.4 0.00 0.00 0.00 49 1016.7
20260504033420 15 292 3.2 6.4 0.00 0.00 0.00 49 1016.7
20260504033320 15 292 4.8 6.4 0.00 0.00 0.00 49 1016.6
20260504033220 15 292 4.8 6.4 0.00 0.00 0.00 49 1016.8
20260504033120 15 292 3.2 6.4 0.00 0.00 0.00 49 1016.5
20260504033020 15 292 3.2 6.4 0.00 0.00 0.00 49 1016.6
20260504032920 15 292 3.2 6.4 0.00 0.00 0.00 49 1016.6
20260504032819 15 292 3.2 6.4 0.00 0.00 0.00 49 1016.6
20260504032720 15 292 4.8 9.7 0.00 0.00 0.00 49 1016.5
20260504032620 15 292 4.8 9.7 0.00 0.00 0.00 49 1016.7
20260504032520 15 295 4.8 9.7 0.00 0.00 0.00 49 1016.6
20260504032420 16 298 3.2 9.7 0.00 0.00 0.00 49 1016.7
20260504032320 16 300 3.2 9.7 0.00 0.00 0.00 47 1016.6
20260504032220 16 299 3.2 9.7 0.00 0.00 0.00 48 1016.7
20260504032120 16 299 3.2 9.7 0.00 0.00 0.00 47 1016.5
20260504032020 16 298 3.2 9.7 0.00 0.00 0.00 47 1016.7
20260504031920 16 298 4.8 9.7 0.00 0.00 0.00 47 1016.5
20260504031819 16 298 4.8 9.7 0.00 0.00 0.00 46 1016.7
20260504031720 16 297 6.4 9.7 0.00 0.00 0.00 47 1016.6
20260504031620 16 297 6.4 9.7 0.00 0.00 0.00 47 1016.7
20260504031520 16 296 6.4 11.3 0.00 0.00 0.00 47 1016.6
20260504031420 16 295 8.0 11.3 0.00 0.00 0.00 47 1016.6
20260504031319 16 294 6.4 11.3 0.00 0.00 0.00 48 1016.9
20260504031220 16 294 8.0 11.3 0.00 0.00 0.00 49 1016.8
20260504031120 16 294 8.0 11.3 0.00 0.00 0.00 49 1016.7
20260504031020 15 293 8.0 11.3 0.00 0.00 0.00 49 1016.7
20260504030920 15 293 8.0 11.3 0.00 0.00 0.00 50 1016.7
20260504030820 15 293 8.0 11.3 0.00 0.00 0.00 51 1016.9
20260504030719 15 293 8.0 11.3 0.00 0.00 0.00 51 1016.9
20260504030620 14 292 9.7 11.3 0.00 0.00 0.00 53 1016.9
20260504030519 14 292 9.7 9.7 0.00 0.00 0.00 53 1016.7
20260504030420 14 289 6.4 9.7 0.00 0.00 0.00 53 1016.9
20260504030320 14 286 3.2 6.4 0.00 0.00 0.00 52 1016.7
20260504030219 14 286 3.2 6.4 0.00 0.00 0.00 52 1016.9
20260504030120 15 286 3.2 6.4 0.00 0.00 0.00 51 1017.1
20260504030020 15 288 4.8 6.4 0.00 0.00 0.00 50 1016.9
20260504025920 15 288 4.8 6.4 0.00 0.00 0.00 50 1016.6
20260504025819 15 288 3.2 6.4 0.00 0.00 0.00 50 1016.9
20260504025719 15 289 0.0 6.4 0.00 0.00 0.00 49 1016.7
20260504025619 15 291 0.0 9.7 0.00 0.00 0.00 49 1016.9
20260504025519 16 291 1.6 9.7 0.00 0.00 0.00 46 1016.8
20260504025420 16 293 1.6 9.7 0.00 0.00 0.00 46 1016.9
20260504025319 16 296 1.6 9.7 0.00 0.00 0.00 43 1016.5
20260504025220 16 298 3.2 11.3 0.00 0.00 0.00 42 1017.0
20260504025120 16 298 3.2 11.3 0.00 0.00 0.00 42 1016.8
20260504025020 16 298 3.2 11.3 0.00 0.00 0.00 42 1016.8
20260504024920 16 298 4.8 11.3 0.00 0.00 0.00 43 1016.9
20260504024820 16 298 6.4 11.3 0.00 0.00 0.00 44 1016.9
20260504024720 16 298 6.4 11.3 0.00 0.00 0.00 45 1016.9
20260504024620 16 298 6.4 11.3 0.00 0.00 0.00 45 1016.8
20260504024520 16 298 6.4 11.3 0.00 0.00 0.00 45 1016.9
20260504024419 15 297 8.0 11.3 0.00 0.00 0.00 47 1016.7
20260504024320 15 294 8.0 11.3 0.00 0.00 0.00 48 1017.0
20260504024220 15 292 6.4 9.7 0.00 0.00 0.00 48 1017.0
20260504024120 15 292 6.4 9.7 0.00 0.00 0.00 49 1016.9
20260504024020 15 292 6.4 9.7 0.00 0.00 0.00 49 1016.8
20260504023919 15 292 4.8 9.7 0.00 0.00 0.00 52 1016.9
20260504023820 14 292 3.2 9.7 0.00 0.00 0.00 53 1016.9
20260504023720 14 292 3.2 9.7 0.00 0.00 0.00 53 1016.9
20260504023620 14 292 6.4 9.7 0.00 0.00 0.00 52 1017.0
20260504023520 15 290 6.4 9.7 0.00 0.00 0.00 51 1017.0
20260504023420 15 290 6.4 9.7 0.00 0.00 0.00 50 1017.0
20260504023319 15 290 3.2 6.4 0.00 0.00 0.00 49 1017.2
20260504023219 15 289 3.2 6.4 0.00 0.00 0.00 49 1017.0
20260504023119 15 287 3.2 6.4 0.00 0.00 0.00 49 1017.1
20260504023020 15 285 4.8 6.4 0.00 0.00 0.00 48 1017.0
20260504022920 15 283 1.6 3.2 0.00 0.00 0.00 49 1017.0
20260504022819 15 281 1.6 6.4 0.00 0.00 0.00 49 1017.3
20260504022720 15 282 1.6 6.4 0.00 0.00 0.00 48 1017.1
20260504022620 15 283 3.2 6.4 0.00 0.00 0.00 48 1017.0
20260504022519 15 286 1.6 6.4 0.00 0.00 0.00 48 1016.9
20260504022419 15 286 3.2 6.4 0.00 0.00 0.00 47 1017.0
20260504022319 15 284 3.2 6.4 0.00 0.00 0.00 47 1017.1
20260504022219 15 283 3.2 6.4 0.00 0.00 0.00 47 1016.9
20260504022119 15 285 1.6 6.4 0.00 0.00 0.00 46 1017.0
20260504022019 15 284 1.6 6.4 0.00 0.00 0.00 46 1017.0
20260504021920 15 285 3.2 6.4 0.00 0.00 0.00 45 1017.1
20260504021820 15 287 3.2 6.4 0.00 0.00 0.00 45 1016.9
20260504021719 15 287 3.2 6.4 0.00 0.00 0.00 45 1017.1
20260504021620 15 287 3.2 6.4 0.00 0.00 0.00 45 1016.9
20260504021520 15 287 3.2 11.3 0.00 0.00 0.00 45 1017.0
20260504021420 15 288 3.2 11.3 0.00 0.00 0.00 46 1017.0
20260504021320 15 289 4.8 11.3 0.00 0.00 0.00 45 1016.8
20260504021219 15 290 3.2 11.3 0.00 0.00 0.00 45 1017.0
20260504021119 15 291 3.2 11.3 0.00 0.00 0.00 45 1016.9
20260504021019 16 292 3.2 11.3 0.00 0.00 0.00 44 1017.0
20260504020920 16 292 3.2 11.3 0.00 0.00 0.00 44 1016.9
20260504020819 16 291 4.8 11.3 0.00 0.00 0.00 44 1016.9
20260504020719 16 291 4.8 11.3 0.00 0.00 0.00 44 1017.0
20260504020620 16 291 6.4 11.3 0.00 0.00 0.00 44 1017.0
20260504020520 16 291 6.4 11.3 0.00 0.00 0.00 44 1017.1
20260504020420 16 292 6.4 11.3 0.00 0.00 0.00 44 1017.1
20260504020319 15 292 4.8 9.7 0.00 0.00 0.00 44 1017.0
20260504020219 15 292 4.8 9.7 0.00 0.00 0.00 45 1017.0
20260504020120 15 292 4.8 9.7 0.00 0.00 0.00 45 1016.9
20260504020020 15 292 3.2 9.7 0.00 0.00 0.00 45 1017.1
20260504015920 16 292 3.2 9.7 0.00 0.00 0.00 45 1017.0
20260504015819 16 294 3.2 9.7 0.00 0.00 0.00 44 1016.9
20260504015720 16 294 3.2 9.7 0.00 0.00 0.00 44 1017.1
20260504015620 15 294 6.4 9.7 0.00 0.00 0.00 45 1016.8
20260504015519 15 294 4.8 6.4 0.00 0.00 0.00 45 1017.0
20260504015420 15 292 3.2 6.4 0.00 0.00 0.00 45 1016.8
20260504015319 15 292 4.8 6.4 0.00 0.00 0.00 46 1016.9
20260504015220 15 292 6.4 6.4 0.00 0.00 0.00 46 1016.9
20260504015120 15 292 4.8 6.4 0.00 0.00 0.00 46 1017.0
20260504015020 16 291 1.6 6.4 0.00 0.00 0.00 44 1016.8
20260504014920 16 291 1.6 6.4 0.00 0.00 0.00 44 1017.0
20260504014819 16 289 3.2 6.4 0.00 0.00 0.00 45 1016.7
20260504014720 15 287 3.2 3.2 0.00 0.00 0.00 45 1016.8
20260504014620 15 287 0.0 6.4 0.00 0.00 0.00 45 1017.0
20260504014520 15 288 0.0 6.4 0.00 0.00 0.00 45 1016.9
20260504014419 15 288 0.0 6.4 0.00 0.00 0.00 45 1016.7
20260504014320 15 289 1.6 6.4 0.00 0.00 0.00 46 1016.9
20260504014219 15 289 1.6 6.4 0.00 0.00 0.00 46 1016.9
20260504014119 15 289 1.6 6.4 0.00 0.00 0.00 46 1017.0
20260504014019 16 290 0.0 6.4 0.00 0.00 0.00 46 1016.7
20260504013919 16 290 1.6 6.4 0.00 0.00 0.00 45 1016.9
20260504013819 16 291 1.6 6.4 0.00 0.00 0.00 45 1016.9
20260504013719 16 292 3.2 6.4 0.00 0.00 0.00 45 1016.9
20260504013620 16 292 3.2 6.4 0.00 0.00 0.00 45 1017.0
20260504013520 16 291 6.4 6.4 0.00 0.00 0.00 47 1017.0
20260504013420 16 290 6.4 6.4 0.00 0.00 0.00 47 1017.0
20260504013320 16 287 6.4 6.4 0.00 0.00 0.00 47 1017.1
20260504013219 16 286 4.8 6.4 0.00 0.00 0.00 46 1016.9
20260504013120 16 284 3.2 6.4 0.00 0.00 0.00 46 1016.9
20260504013019 16 280 3.2 3.2 0.00 0.00 0.00 46 1017.0
20260504012919 16 276 1.6 3.2 0.00 0.00 0.00 46 1016.8
20260504012819 16 275 0.0 3.2 0.00 0.00 0.00 46 1017.0
20260504012720 16 278 0.0 3.2 0.00 0.00 0.00 46 1016.9
20260504012619 16 281 0.0 3.2 0.00 0.00 0.00 46 1016.8
20260504012519 16 285 0.0 3.2 0.00 0.00 0.00 46 1016.7
20260504012419 16 288 1.6 3.2 0.00 0.00 0.00 45 1016.8
20260504012320 16 292 0.0 3.2 0.00 0.00 0.00 46 1016.8
20260504012219 16 292 0.0 3.2 0.00 0.00 0.00 46 1016.7
20260504012120 16 292 0.0 3.2 0.00 0.00 0.00 46 1016.9
20260504012020 16 292 0.0 3.2 0.00 0.00 0.00 45 1016.9
20260504011919 16 292 0.0 3.2 0.00 0.00 0.00 45 1016.8
20260504011819 16 292 0.0 6.4 0.00 0.00 0.00 45 1016.8
20260504011719 16 292 1.6 6.4 0.00 0.00 0.00 45 1016.7
20260504011620 16 292 3.2 6.4 0.00 0.00 0.00 45 1016.7
20260504011520 16 292 1.6 6.4 0.00 0.00 0.00 45 1016.8
20260504011419 16 292 0.0 6.4 0.00 0.00 0.00 45 1016.6
20260504011319 16 292 0.0 6.4 0.00 0.00 0.00 45 1016.8
20260504011219 16 292 1.6 6.4 0.00 0.00 0.00 45 1016.8
20260504011119 16 292 1.6 6.4 0.00 0.00 0.00 46 1016.7
20260504011020 16 292 3.2 6.4 0.00 0.00 0.00 47 1016.7
20260504010919 16 292 3.2 6.4 0.00 0.00 0.00 47 1017.0
20260504010820 16 292 3.2 6.4 0.00 0.00 0.00 48 1016.6
20260504010719 15 292 3.2 6.4 0.00 0.00 0.00 48 1016.7
20260504010620 15 292 3.2 6.4 0.00 0.00 0.00 49 1016.7
20260504010520 15 292 3.2 6.4 0.00 0.00 0.00 49 1016.7
20260504010420 15 292 3.2 6.4 0.00 0.00 0.00 49 1016.8
20260504010319 15 292 3.2 6.4 0.00 0.00 0.00 50 1016.6
20260504010219 15 292 3.2 6.4 0.00 0.00 0.00 51 1016.8
20260504010119 15 292 3.2 6.4 0.00 0.00 0.00 51 1016.8
20260504010019 15 292 3.2 3.2 0.00 0.00 0.00 50 1016.8
20260504005919 15 292 3.2 3.2 0.00 0.00 0.00 50 1016.7
20260504005820 15 294 3.2 3.2 0.00 0.00 0.00 51 1016.7
20260504005720 15 298 3.2 3.2 0.00 0.00 0.00 51 1016.6
20260504005620 15 298 3.2 3.2 0.00 0.00 0.00 51 1016.8
20260504005519 16 298 0.0 3.2 0.00 0.00 0.00 50 1016.8
20260504005420 16 299 0.0 6.4 0.00 0.00 0.00 49 1016.7
20260504005319 16 300 0.0 6.4 0.00 0.00 0.00 49 1016.7
20260504005219 16 299 1.6 6.4 0.00 0.00 0.00 48 1016.7
20260504005119 16 299 1.6 6.4 0.00 0.00 0.00 48 1016.7
20260504005020 16 298 1.6 6.4 0.00 0.00 0.00 49 1016.7
20260504004919 16 298 3.2 6.4 0.00 0.00 0.00 48 1016.7
20260504004820 16 297 3.2 6.4 0.00 0.00 0.00 48 1016.7
20260504004719 16 295 3.2 6.4 0.00 0.00 0.00 48 1016.7
20260504004619 16 295 3.2 6.4 0.00 0.00 0.00 48 1017.0
20260504004519 16 294 3.2 6.4 0.00 0.00 0.00 48 1016.7
20260504004419 16 293 3.2 6.4 0.00 0.00 0.00 48 1016.8
20260504004320 16 292 3.2 6.4 0.00 0.00 0.00 49 1016.7
20260504004220 16 292 3.2 6.4 0.00 0.00 0.00 49 1016.6
20260504004120 16 292 3.2 6.4 0.00 0.00 0.00 49 1016.6
20260504004019 16 292 3.2 6.4 0.00 0.00 0.00 49 1016.7
20260504003919 16 292 3.2 6.4 0.00 0.00 0.00 49 1016.7
20260504003819 16 292 3.2 6.4 0.00 0.00 0.00 49 1016.8
20260504003720 16 292 4.8 6.4 0.00 0.00 0.00 49 1016.8
20260504003620 16 292 3.2 6.4 0.00 0.00 0.00 50 1016.8
20260504003519 16 292 4.8 6.4 0.00 0.00 0.00 50 1016.6
20260504003419 16 292 4.8 6.4 0.00 0.00 0.00 50 1016.7
20260504003319 16 292 3.2 6.4 0.00 0.00 0.00 50 1016.9
20260504003219 16 292 3.2 6.4 0.00 0.00 0.00 50 1016.7
20260504003119 16 292 3.2 6.4 0.00 0.00 0.00 50 1016.8
20260504003020 16 292 3.2 6.4 0.00 0.00 0.00 50 1016.9
20260504002920 16 292 3.2 6.4 0.00 0.00 0.00 50 1016.7
20260504002819 16 292 3.2 6.4 0.00 0.00 0.00 50 1016.6
20260504002719 16 292 4.8 6.4 0.00 0.00 0.00 50 1016.7
20260504002620 16 292 3.2 6.4 0.00 0.00 0.00 50 1016.6
20260504002519 16 292 3.2 3.2 0.00 0.00 0.00 49 1016.8
20260504002419 16 292 3.2 3.2 0.00 0.00 0.00 49 1016.7
20260504002319 16 292 3.2 3.2 0.00 0.00 0.00 49 1016.8
20260504002219 15 292 3.2 3.2 0.00 0.00 0.00 49 1016.7
20260504002120 15 292 3.2 3.2 0.00 0.00 0.00 50 1016.9
20260504002019 15 292 3.2 6.4 0.00 0.00 0.00 50 1017.0
20260504001919 16 292 0.0 6.4 0.00 0.00 0.00 50 1016.7
20260504001820 16 292 0.0 6.4 0.00 0.00 0.00 50 1016.7
20260504001719 16 294 0.0 6.4 0.00 0.00 0.00 49 1016.8
20260504001620 16 296 0.0 6.4 0.00 0.00 0.00 49 1016.8
20260504001520 16 298 3.2 6.4 0.00 0.00 0.00 49 1016.8
20260504001419 16 300 3.2 6.4 0.00 0.00 0.00 49 1016.9
20260504001319 16 302 3.2 6.4 0.00 0.00 0.00 49 1016.7
20260504001220 16 304 3.2 6.4 0.00 0.00 0.00 48 1016.9
20260504001119 16 306 3.2 6.4 0.00 0.00 0.00 49 1016.8
20260504001019 16 309 3.2 6.4 0.00 0.00 0.00 49 1017.3
20260504000919 16 311 3.2 6.4 0.00 0.00 0.00 49 1016.9
20260504000819 16 310 3.2 6.4 0.00 0.00 0.00 50 1016.9
20260504000719 15 308 3.2 6.4 0.00 0.00 0.00 51 1016.8
20260504000620 15 307 3.2 6.4 0.00 0.00 0.00 51 1017.0
20260504000519 15 304 3.2 6.4 0.00 0.00 0.00 51 1016.9
20260504000419 15 302 3.2 6.4 0.00 0.00 0.00 51 1017.0
20260504000319 15 300 3.2 6.4 0.00 0.00 0.00 51 1016.9
20260504000220 15 298 3.2 6.4 0.00 0.00 0.00 51 1016.8
20260504000119 15 297 3.2 6.4 0.00 0.00 0.00 51 1016.7
20260504000020 15 295 3.2 6.4 0.00 0.00 0.00 51 1017.0
20260503235919 15 294 3.2 6.4 0.00 0.00 0.00 51 1016.9
20260503235819 15 294 4.8 6.4 0.00 0.00 0.00 52 1016.7
20260503235719 15 294 6.4 6.4 0.00 0.00 0.00 52 1017.0
20260503235620 15 293 6.4 6.4 0.00 0.00 0.00 52 1017.0
20260503235520 15 292 6.4 6.4 0.00 0.00 0.00 52 1017.1
20260503235419 15 292 4.8 6.4 0.00 0.00 0.00 53 1016.9
20260503235319 15 292 4.8 6.4 0.00 0.00 0.00 53 1016.8
20260503235219 15 292 3.2 6.4 0.00 0.00 0.00 53 1016.9
20260503235120 15 292 3.2 6.4 0.00 0.00 0.00 53 1017.1
20260503235020 15 292 3.2 6.4 0.00 0.00 0.00 53 1017.1
20260503234919 15 292 3.2 6.4 0.00 0.00 0.00 53 1016.9
20260503234819 15 292 4.8 6.4 0.00 0.00 0.00 53 1017.1
20260503234719 15 292 3.2 6.4 0.00 0.00 0.00 53 1017.1
20260503234619 15 292 3.2 6.4 0.00 0.00 0.00 52 1017.0
20260503234519 15 292 4.8 6.4 0.00 0.00 0.00 52 1016.9
20260503234419 15 292 6.4 6.4 0.00 0.00 0.00 52 1017.1
20260503234320 15 292 4.8 6.4 0.00 0.00 0.00 52 1017.3
20260503234219 15 292 6.4 6.4 0.00 0.00 0.00 53 1017.2
20260503234119 15 292 6.4 6.4 0.00 0.00 0.00 53 1017.0
20260503234020 15 292 6.4 6.4 0.00 0.00 0.00 53 1016.9
20260503233919 15 292 4.8 6.4 0.00 0.00 0.00 52 1017.1
20260503233819 15 292 4.8 6.4 0.00 0.00 0.00 52 1017.1
20260503233719 15 292 4.8 6.4 0.00 0.00 0.00 52 1017.1
20260503233620 15 292 3.2 6.4 0.00 0.00 0.00 52 1017.2
20260503233519 15 292 6.4 6.4 0.00 0.00 0.00 52 1016.9
20260503233419 15 292 4.8 6.4 0.00 0.00 0.00 52 1017.0
20260503233320 15 291 4.8 6.4 0.00 0.00 0.00 52 1017.0
20260503233219 15 290 6.4 6.4 0.00 0.00 0.00 52 1017.0
20260503233119 15 290 6.4 6.4 0.00 0.00 0.00 52 1016.9
20260503233019 15 290 6.4 6.4 0.00 0.00 0.00 52 1017.1
20260503232919 15 290 6.4 6.4 0.00 0.00 0.00 53 1016.8
20260503232820 15 290 4.8 6.4 0.00 0.00 0.00 53 1017.0
20260503232719 15 290 4.8 6.4 0.00 0.00 0.00 53 1017.1
20260503232619 15 288 3.2 6.4 0.00 0.00 0.00 53 1017.0
20260503232519 15 287 1.6 3.2 0.00 0.00 0.00 53 1017.1
20260503232419 15 288 0.0 3.2 0.00 0.00 0.00 53 1017.1
20260503232319 15 290 3.2 3.2 0.00 0.00 0.00 54 1017.0
20260503232219 15 289 3.2 3.2 0.00 0.00 0.00 54 1017.0
20260503232119 15 289 3.2 3.2 0.00 0.00 0.00 54 1017.0
20260503232019 15 287 3.2 3.2 0.00 0.00 0.00 54 1016.9
20260503231919 15 286 3.2 3.2 0.00 0.00 0.00 55 1017.1
20260503231819 15 286 1.6 3.2 0.00 0.00 0.00 55 1017.0
20260503231719 15 283 1.6 3.2 0.00 0.00 0.00 54 1016.8
20260503231619 15 284 1.6 6.4 0.00 0.00 0.00 54 1017.1
20260503231519 15 286 1.6 6.4 0.00 0.00 0.00 54 1017.0
20260503231419 15 287 0.0 6.4 0.00 0.00 0.00 54 1016.9
20260503231319 15 288 0.0 6.4 0.00 0.00 0.00 54 1017.0
20260503231219 15 289 0.0 6.4 0.00 0.00 0.00 53 1017.2
20260503231119 15 289 0.0 6.4 0.00 0.00 0.00 52 1017.1
20260503231019 15 290 0.0 6.4 0.00 0.00 0.00 52 1017.2
20260503230920 16 290 0.0 6.4 0.00 0.00 0.00 51 1017.1
20260503230819 16 290 1.6 9.7 0.00 0.00 0.00 51 1017.0
20260503230719 16 291 1.6 9.7 0.00 0.00 0.00 49 1017.1
20260503230620 16 292 3.2 9.7 0.00 0.00 0.00 49 1017.1
20260503230519 16 292 3.2 9.7 0.00 0.00 0.00 49 1017.2
20260503230419 16 292 6.4 9.7 0.00 0.00 0.00 49 1017.1
20260503230319 16 292 6.4 9.7 0.00 0.00 0.00 49 1017.2
20260503230219 16 292 6.4 9.7 0.00 0.00 0.00 49 1017.0
20260503230119 16 292 6.4 9.7 0.00 0.00 0.00 48 1017.2
20260503230019 16 292 6.4 9.7 0.00 0.00 0.00 49 1017.0
20260503225919 16 292 6.4 9.7 0.00 0.00 0.00 49 1017.0
20260503225819 16 292 6.4 9.7 0.00 0.00 0.00 49 1016.8
20260503225719 16 292 6.4 9.7 0.00 0.00 0.00 49 1017.0
20260503225619 16 292 6.4 9.7 0.00 0.00 0.00 49 1017.0
20260503225520 15 292 6.4 9.7 0.00 0.00 0.00 52 1017.2
20260503225419 15 292 6.4 9.7 0.00 0.00 0.00 52 1017.2
20260503225319 15 292 6.4 9.7 0.00 0.00 0.00 52 1017.1
20260503225219 15 292 8.0 9.7 0.00 0.00 0.00 54 1017.2
20260503225119 14 292 6.4 9.7 0.00 0.00 0.00 54 1017.1
20260503225019 14 291 6.4 9.7 0.00 0.00 0.00 54 1017.1
20260503224920 14 291 6.4 9.7 0.00 0.00 0.00 54 1017.2
20260503224819 14 290 6.4 6.4 0.00 0.00 0.00 55 1017.0
20260503224719 14 290 6.4 6.4 0.00 0.00 0.00 55 1017.3
20260503224619 14 290 4.8 6.4 0.00 0.00 0.00 55 1017.1
20260503224519 14 291 3.2 6.4 0.00 0.00 0.00 54 1017.2
20260503224419 15 291 3.2 6.4 0.00 0.00 0.00 53 1017.2
20260503224319 15 291 3.2 6.4 0.00 0.00 0.00 53 1017.3
20260503224219 15 290 3.2 6.4 0.00 0.00 0.00 53 1017.3
20260503224119 15 289 4.8 6.4 0.00 0.00 0.00 53 1017.3
20260503224019 15 289 6.4 6.4 0.00 0.00 0.00 53 1017.4
20260503223919 15 288 3.2 6.4 0.00 0.00 0.00 52 1017.3
20260503223819 15 287 6.4 6.4 0.00 0.00 0.00 53 1017.3
20260503223719 15 287 3.2 6.4 0.00 0.00 0.00 53 1017.2
20260503223619 15 286 4.8 6.4 0.00 0.00 0.00 53 1017.4
20260503223519 15 285 3.2 6.4 0.00 0.00 0.00 53 1017.4
20260503223419 15 284 4.8 6.4 0.00 0.00 0.00 53 1017.2
20260503223319 15 281 1.6 6.4 0.00 0.00 0.00 53 1017.2
20260503223219 15 282 1.6 6.4 0.00 0.00 0.00 53 1017.3
20260503223119 15 283 1.6 6.4 0.00 0.00 0.00 54 1017.4
20260503223019 15 283 3.2 6.4 0.00 0.00 0.00 54 1017.1
20260503222920 15 282 3.2 6.4 0.00 0.00 0.00 54 1017.3
20260503222819 15 282 3.2 6.4 0.00 0.00 0.00 55 1017.4
20260503222719 15 279 3.2 6.4 0.00 0.00 0.00 53 1017.3
20260503222619 16 276 1.6 6.4 0.00 0.00 0.00 53 1017.1
20260503222519 16 270 1.6 6.4 0.00 0.00 0.00 52 1017.3
20260503222420 16 268 1.6 6.4 0.00 0.00 0.00 52 1017.2
20260503222320 15 264 3.2 6.4 0.00 0.00 0.00 53 1017.2
20260503222219 15 259 3.2 6.4 0.00 0.00 0.00 53 1017.3
20260503222119 15 255 1.6 6.4 0.00 0.00 0.00 54 1017.5
20260503222019 15 253 1.6 6.4 0.00 0.00 0.00 54 1017.2
20260503221919 15 252 1.6 6.4 0.00 0.00 0.00 54 1017.1
20260503221819 15 251 1.6 6.4 0.00 0.00 0.00 54 1017.2
20260503221719 15 250 1.6 6.4 0.00 0.00 0.00 55 1017.1
20260503221619 15 249 3.2 6.4 0.00 0.00 0.00 55 1017.3
20260503221519 15 250 4.8 6.4 0.00 0.00 0.00 55 1017.2
20260503221419 15 251 3.2 6.4 0.00 0.00 0.00 55 1017.3
20260503221319 15 253 3.2 6.4 0.00 0.00 0.00 56 1017.0
20260503221219 15 255 4.8 6.4 0.00 0.00 0.00 55 1017.0
20260503221119 15 257 6.4 6.4 0.00 0.00 0.00 56 1017.1
20260503221019 15 260 4.8 6.4 0.00 0.00 0.00 56 1017.2
20260503220919 15 265 4.8 6.4 0.00 0.00 0.00 57 1017.3
20260503220819 15 269 3.2 6.4 0.00 0.00 0.00 57 1017.3
20260503220719 14 270 1.6 3.2 0.00 0.00 0.00 58 1017.3
20260503220619 14 270 1.6 3.2 0.00 0.00 0.00 58 1017.2
20260503220519 14 270 1.6 3.2 0.00 0.00 0.00 58 1017.2
20260503220419 14 270 1.6 3.2 0.00 0.00 0.00 58 1017.3
20260503220319 14 270 1.6 6.4 0.00 0.00 0.00 58 1017.4
20260503220219 14 270 1.6 6.4 0.00 0.00 0.00 59 1017.1
20260503220119 14 270 1.6 6.4 0.00 0.00 0.00 59 1017.1
20260503220020 14 270 1.6 6.4 0.00 0.00 0.00 59 1017.3
20260503215919 14 272 3.2 6.4 0.00 0.00 0.00 59 1017.6
20260503215820 14 273 3.2 6.4 0.00 0.00 0.00 59 1017.3
20260503215719 14 274 1.6 6.4 0.00 0.00 0.00 59 1017.4
20260503215619 14 276 1.6 6.4 0.00 0.00 0.00 58 1017.4
20260503215519 14 278 3.2 6.4 0.00 0.00 0.00 58 1017.1
20260503215419 14 278 1.6 6.4 0.00 0.00 0.00 58 1017.5
20260503215319 15 278 3.2 6.4 0.00 0.00 0.00 58 1017.3
20260503215219 15 274 1.6 6.4 0.00 0.00 0.00 58 1017.1
20260503215119 15 269 1.6 6.4 0.00 0.00 0.00 58 1017.1
20260503215019 15 267 1.6 6.4 0.00 0.00 0.00 57 1017.3
20260503214919 15 264 1.6 6.4 0.00 0.00 0.00 57 1016.9
20260503214819 15 263 1.6 6.4 0.00 0.00 0.00 57 1017.2
20260503214719 15 262 1.6 6.4 0.00 0.00 0.00 57 1017.1
20260503214619 15 258 1.6 6.4 0.00 0.00 0.00 57 1017.2
20260503214519 15 253 3.2 6.4 0.00 0.00 0.00 57 1017.2
20260503214419 15 252 0.0 6.4 0.00 0.00 0.00 56 1017.4
20260503214319 15 250 1.6 6.4 0.00 0.00 0.00 56 1017.1
20260503214219 15 251 4.8 6.4 0.00 0.00 0.00 56 1017.2
20260503214119 15 253 3.2 6.4 0.00 0.00 0.00 56 1017.2
20260503214019 15 253 1.6 6.4 0.00 0.00 0.00 56 1017.1
20260503213919 15 254 1.6 6.4 0.00 0.00 0.00 56 1017.1
20260503213819 15 254 3.2 6.4 0.00 0.00 0.00 55 1017.2
20260503213719 15 256 3.2 6.4 0.00 0.00 0.00 55 1017.0
20260503213619 15 263 3.2 6.4 0.00 0.00 0.00 56 1017.1
20260503213519 15 274 1.6 6.4 0.00 0.00 0.00 56 1017.1
20260503213419 15 279 3.2 6.4 0.00 0.00 0.00 56 1017.0
20260503213319 15 281 1.6 6.4 0.00 0.00 0.00 57 1017.1
20260503213219 15 283 1.6 6.4 0.00 0.00 0.00 57 1017.4
20260503213119 15 282 1.6 6.4 0.00 0.00 0.00 57 1017.2
20260503213019 15 280 1.6 6.4 0.00 0.00 0.00 58 1017.2
20260503212919 15 281 1.6 6.4 0.00 0.00 0.00 58 1017.2
20260503212819 15 282 3.2 6.4 0.00 0.00 0.00 58 1017.3
20260503212719 15 281 3.2 6.4 0.00 0.00 0.00 58 1017.2
20260503212619 15 280 3.2 6.4 0.00 0.00 0.00 58 1017.0
20260503212519 15 277 3.2 6.4 0.00 0.00 0.00 57 1017.3
20260503212419 15 276 3.2 6.4 0.00 0.00 0.00 57 1017.1
20260503212319 15 279 1.6 6.4 0.00 0.00 0.00 57 1016.9
20260503212219 15 280 3.2 6.4 0.00 0.00 0.00 58 1017.1
20260503212119 15 283 3.2 6.4 0.00 0.00 0.00 58 1017.3
20260503212019 15 287 1.6 6.4 0.00 0.00 0.00 58 1017.1
20260503211919 15 288 1.6 6.4 0.00 0.00 0.00 58 1017.3
20260503211819 15 289 1.6 6.4 0.00 0.00 0.00 58 1017.1
20260503211719 15 290 1.6 6.4 0.00 0.00 0.00 58 1017.3
20260503211619 15 291 1.6 6.4 0.00 0.00 0.00 58 1017.4
20260503211519 15 292 3.2 6.4 0.00 0.00 0.00 58 1017.5
20260503211419 15 291 3.2 6.4 0.00 0.00 0.00 58 1017.4
20260503211319 15 290 3.2 6.4 0.00 0.00 0.00 58 1017.1
20260503211219 15 288 4.8 6.4 0.00 0.00 0.00 58 1017.3
20260503211119 15 286 4.8 6.4 0.00 0.00 0.00 58 1017.0
20260503211019 15 285 3.2 6.4 0.00 0.00 0.00 58 1017.1
20260503210919 15 282 4.8 6.4 0.00 0.00 0.00 58 1017.1
20260503210819 15 276 3.2 6.4 0.00 0.00 0.00 58 1017.2
20260503210719 15 270 3.2 6.4 0.00 0.00 0.00 57 1017.1
20260503210619 15 268 3.2 6.4 0.00 0.00 0.00 58 1017.1
20260503210519 15 270 1.6 6.4 0.00 0.00 0.00 57 1017.2
20260503210419 15 270 1.6 6.4 0.00 0.00 0.00 57 1017.2
20260503210319 15 272 3.2 6.4 0.00 0.00 0.00 57 1017.0
20260503210219 15 272 1.6 6.4 0.00 0.00 0.00 57 1017.2
20260503210119 15 274 3.2 6.4 0.00 0.00 0.00 57 1017.3
20260503210019 15 274 3.2 6.4 0.00 0.00 0.00 57 1017.1
20260503205919 15 275 3.2 6.4 0.00 0.00 0.00 58 1017.2
20260503205819 15 277 1.6 6.4 0.00 0.00 0.00 58 1017.1
20260503205719 15 278 1.6 9.7 0.00 0.00 0.00 58 1017.2
20260503205619 15 278 3.2 9.7 0.00 0.00 0.00 58 1017.3
20260503205519 15 275 3.2 9.7 0.00 0.00 0.00 58 1017.1
20260503205419 15 275 3.2 9.7 0.00 0.00 0.00 57 1017.2
20260503205319 15 271 1.6 9.7 0.00 0.00 0.00 56 1017.1
20260503205219 15 272 3.2 9.7 0.00 0.00 0.00 56 1017.2
20260503205119 15 269 3.2 9.7 0.00 0.00 0.00 56 1017.4
20260503205019 15 269 1.6 9.7 0.00 0.00 0.00 55 1017.3
20260503204919 15 269 3.2 9.7 0.00 0.00 0.00 55 1017.2
20260503204819 15 269 3.2 9.7 0.00 0.00 0.00 55 1017.1
20260503204719 15 268 4.8 6.4 0.00 0.00 0.00 56 1017.4
20260503204619 15 269 3.2 6.4 0.00 0.00 0.00 55 1016.9
20260503204519 15 272 3.2 6.4 0.00 0.00 0.00 55 1017.1
20260503204419 15 275 0.0 3.2 0.00 0.00 0.00 55 1017.2
20260503204319 15 281 1.6 3.2 0.00 0.00 0.00 55 1017.0
20260503204219 15 283 1.6 3.2 0.00 0.00 0.00 55 1017.4
20260503204119 15 285 0.0 3.2 0.00 0.00 0.00 55 1017.2
20260503204019 15 287 0.0 3.2 0.00 0.00 0.00 55 1017.1
20260503203919 15 289 0.0 3.2 0.00 0.00 0.00 55 1017.2
20260503203819 15 291 0.0 3.2 0.00 0.00 0.00 55 1017.2
20260503203719 15 292 0.0 3.2 0.00 0.00 0.00 55 1017.2
20260503203619 15 292 1.6 3.2 0.00 0.00 0.00 54 1017.2
20260503203519 15 292 1.6 3.2 0.00 0.00 0.00 54 1017.3
20260503203419 15 290 1.6 3.2 0.00 0.00 0.00 54 1017.1
20260503203319 15 287 3.2 3.2 0.00 0.00 0.00 54 1017.2
20260503203219 15 283 1.6 3.2 0.00 0.00 0.00 54 1017.3
20260503203119 15 279 1.6 3.2 0.00 0.00 0.00 53 1017.0
20260503203019 15 275 1.6 3.2 0.00 0.00 0.00 53 1017.2
20260503202919 15 272 1.6 3.2 0.00 0.00 0.00 54 1017.2
20260503202819 15 267 0.0 3.2 0.00 0.00 0.00 54 1017.2
20260503202719 15 265 0.0 3.2 0.00 0.00 0.00 54 1017.1
20260503202619 15 265 0.0 3.2 0.00 0.00 0.00 54 1017.2
20260503202519 15 265 0.0 3.2 0.00 0.00 0.00 54 1017.4
20260503202419 15 264 0.0 3.2 0.00 0.00 0.00 54 1017.1
20260503202319 15 260 0.0 3.2 0.00 0.00 0.00 54 1017.1
20260503202219 15 247 0.0 3.2 0.00 0.00 0.00 54 1017.1
20260503202119 15 247 0.0 3.2 0.00 0.00 0.00 54 1017.0
20260503202019 15 247 0.0 3.2 0.00 0.00 0.00 53 1017.0
20260503201919 15 247 0.0 3.2 0.00 0.00 0.00 53 1017.2
20260503201819 15 247 0.0 3.2 0.00 0.00 0.00 53 1017.2
20260503201719 16 247 0.0 3.2 0.00 0.00 0.00 53 1017.2
20260503201619 16 247 0.0 3.2 0.00 0.00 0.00 53 1017.0
20260503201519 16 249 0.0 3.2 0.00 0.00 0.00 53 1016.9
20260503201419 16 249 0.0 3.2 0.00 0.00 0.00 53 1017.2
20260503201319 16 249 0.0 3.2 0.00 0.00 0.00 53 1017.0
20260503201219 16 250 1.6 3.2 0.00 0.00 0.00 53 1017.1
20260503201119 16 250 1.6 3.2 0.00 0.00 0.00 53 1017.0
20260503201019 16 251 1.6 3.2 0.00 0.00 0.00 52 1017.3
20260503200919 16 252 1.6 3.2 0.00 0.00 0.00 52 1017.2
20260503200819 16 253 1.6 3.2 0.00 0.00 0.00 52 1017.4
20260503200719 16 268 3.2 3.2 0.00 0.00 0.00 52 1017.3
20260503200619 16 281 0.0 3.2 0.00 0.00 0.00 51 1017.2
20260503200519 16 292 0.0 3.2 0.00 0.00 0.00 51 1017.0
20260503200419 16 292 0.0 3.2 0.00 0.00 0.00 51 1017.2
20260503200319 16 292 0.0 3.2 0.00 0.00 0.00 51 1017.3
20260503200219 16 292 0.0 3.2 0.00 0.00 0.00 51 1017.4
20260503200119 16 292 0.0 3.2 0.00 0.00 0.00 51 1017.2
20260503200019 16 292 0.0 3.2 0.00 0.00 0.00 51 1017.1
20260503195919 16 292 0.0 3.2 0.00 0.00 0.00 51 1017.2
20260503195819 16 292 0.0 3.2 0.00 0.00 0.00 51 1017.3
20260503195719 16 0 0.0 0.0 0.00 0.00 0.00 51 1017.1
20260503195619 16 0 0.0 0.0 0.00 0.00 0.00 51 1017.2
20260503195519 16 247 0.0 3.2 0.00 0.00 0.00 52 1017.0
20260503195419 16 247 0.0 3.2 0.00 0.00 0.00 52 1017.2
20260503195319 16 252 0.0 3.2 0.00 0.00 0.00 53 1017.3
20260503195219 16 256 0.0 3.2 0.00 0.00 0.00 53 1017.1
20260503195119 16 259 0.0 3.2 0.00 0.00 0.00 53 1017.1
20260503195019 16 261 0.0 3.2 0.00 0.00 0.00 53 1017.0
20260503194919 16 262 0.0 3.2 0.00 0.00 0.00 53 1017.3
20260503194819 16 263 0.0 3.2 0.00 0.00 0.00 53 1017.2
20260503194719 16 264 0.0 3.2 0.00 0.00 0.00 53 1017.1
20260503194619 16 262 0.0 6.4 0.00 0.00 0.00 53 1017.2
20260503194519 16 258 3.2 9.7 0.00 0.00 0.00 53 1017.3
20260503194419 16 258 3.2 9.7 0.00 0.00 0.00 53 1017.3
20260503194319 16 255 0.0 9.7 0.00 0.00 0.00 53 1017.3
20260503194219 16 254 0.0 9.7 0.00 0.00 0.00 53 1017.2
20260503194119 16 252 1.6 9.7 0.00 0.00 0.00 53 1017.0
20260503194019 16 251 0.0 9.7 0.00 0.00 0.00 53 1017.2
20260503193919 16 250 1.6 9.7 0.00 0.00 0.00 53 1017.1
20260503193819 16 249 3.2 9.7 0.00 0.00 0.00 53 1017.3
20260503193719 16 248 1.6 9.7 0.00 0.00 0.00 53 1017.0
20260503193619 16 247 4.8 9.7 0.00 0.00 0.00 52 1017.3
20260503193519 16 248 6.4 9.7 0.00 0.00 0.00 53 1017.3
20260503193419 16 249 6.4 6.4 0.00 0.00 0.00 52 1017.1
20260503193319 16 251 4.8 6.4 0.00 0.00 0.00 52 1017.2
20260503193219 16 253 4.8 6.4 0.00 0.00 0.00 52 1017.2
20260503193119 16 257 3.2 6.4 0.00 0.00 0.00 52 1017.0
20260503193019 16 261 3.2 6.4 0.00 0.00 0.00 52 1016.9
20260503192919 16 266 4.8 6.4 0.00 0.00 0.00 52 1017.3
20260503192819 16 273 3.2 3.2 0.00 0.00 0.00 52 1017.1
20260503192719 16 280 3.2 3.2 0.00 0.00 0.00 52 1017.3
20260503192619 16 283 3.2 3.2 0.00 0.00 0.00 52 1017.1
20260503192519 16 285 1.6 3.2 0.00 0.00 0.00 52 1017.2
20260503192419 16 286 0.0 3.2 0.00 0.00 0.00 52 1017.2
20260503192319 16 285 1.6 3.2 0.00 0.00 0.00 52 1017.2
20260503192219 16 287 0.0 3.2 0.00 0.00 0.00 52 1017.1
20260503192119 16 286 1.6 3.2 0.00 0.00 0.00 52 1017.2
20260503192019 16 283 3.2 6.4 0.00 0.00 0.00 52 1017.3
20260503191919 16 274 1.6 6.4 0.00 0.00 0.00 52 1017.2
20260503191819 16 270 3.2 6.4 0.00 0.00 0.00 52 1017.1
20260503191719 16 269 3.2 6.4 0.00 0.00 0.00 52 1017.1
20260503191619 16 264 3.2 6.4 0.00 0.00 0.00 52 1017.0
20260503191519 16 262 0.0 6.4 0.00 0.00 0.00 52 1017.0
20260503191419 16 262 1.6 6.4 0.00 0.00 0.00 52 1017.2
20260503191319 16 262 1.6 6.4 0.00 0.00 0.00 52 1017.2
20260503191219 16 262 0.0 6.4 0.00 0.00 0.00 52 1016.9
20260503191119 16 262 1.6 6.4 0.00 0.00 0.00 51 1017.0
20260503191019 16 260 3.2 6.4 0.00 0.00 0.00 50 1017.0
20260503190919 16 264 3.2 6.4 0.00 0.00 0.00 50 1017.1
20260503190819 16 263 3.2 6.4 0.00 0.00 0.00 51 1017.0
20260503190719 16 259 3.2 6.4 0.00 0.00 0.00 51 1017.2
20260503190619 16 258 1.6 6.4 0.00 0.00 0.00 51 1017.0
20260503190519 16 256 1.6 6.4 0.00 0.00 0.00 51 1017.2
20260503190419 16 254 1.6 6.4 0.00 0.00 0.00 51 1017.0
20260503190319 16 252 1.6 6.4 0.00 0.00 0.00 50 1017.0
20260503190219 16 250 1.6 6.4 0.00 0.00 0.00 51 1017.1
20260503190119 17 249 1.6 6.4 0.00 0.00 0.00 50 1017.0
20260503190019 17 249 3.2 9.7 0.00 0.00 0.00 50 1016.9
20260503185919 16 247 6.4 9.7 0.00 0.00 0.00 50 1017.1
20260503185819 16 247 4.8 9.7 0.00 0.00 0.00 50 1017.0
20260503185719 16 249 4.8 9.7 0.00 0.00 0.00 51 1017.0
20260503185619 16 249 4.8 9.7 0.00 0.00 0.00 50 1017.0
20260503185519 17 249 3.2 9.7 0.00 0.00 0.00 50 1017.0
20260503185419 16 249 3.2 9.7 0.00 0.00 0.00 50 1017.0
20260503185319 17 251 3.2 9.7 0.00 0.00 0.00 50 1017.0
20260503185219 17 251 3.2 9.7 0.00 0.00 0.00 49 1017.0
20260503185119 17 251 6.4 9.7 0.00 0.00 0.00 49 1017.0
20260503185019 17 253 4.8 9.7 0.00 0.00 0.00 49 1017.0
20260503184919 17 254 4.8 9.7 0.00 0.00 0.00 49 1016.9
20260503184819 17 256 3.2 9.7 0.00 0.00 0.00 49 1017.1
20260503184719 17 256 3.2 9.7 0.00 0.00 0.00 49 1017.0
20260503184619 17 258 4.8 9.7 0.00 0.00 0.00 49 1016.9
20260503184519 17 260 6.4 9.7 0.00 0.00 0.00 48 1016.9
20260503184419 17 263 4.8 9.7 0.00 0.00 0.00 49 1017.0
20260503184319 17 261 4.8 6.4 0.00 0.00 0.00 49 1017.0
20260503184219 17 261 4.8 6.4 0.00 0.00 0.00 48 1017.1
20260503184119 17 261 0.0 6.4 0.00 0.00 0.00 48 1016.9
20260503184019 17 260 3.2 6.4 0.00 0.00 0.00 48 1017.0
20260503183919 17 259 1.6 6.4 0.00 0.00 0.00 48 1017.0
20260503183819 17 258 1.6 6.4 0.00 0.00 0.00 49 1017.0
20260503183719 17 257 1.6 6.4 0.00 0.00 0.00 48 1016.9
20260503183619 17 257 1.6 6.4 0.00 0.00 0.00 48 1016.9
20260503183519 17 256 3.2 6.4 0.00 0.00 0.00 48 1017.0
20260503183419 17 257 3.2 6.4 0.00 0.00 0.00 49 1017.0
20260503183319 17 260 3.2 6.4 0.00 0.00 0.00 49 1016.9
20260503183219 17 264 1.6 3.2 0.00 0.00 0.00 48 1017.0
20260503183119 17 267 3.2 3.2 0.00 0.00 0.00 48 1017.0
20260503183019 17 270 0.0 3.2 0.00 0.00 0.00 48 1017.0
20260503182919 17 271 1.6 3.2 0.00 0.00 0.00 48 1017.1
20260503182819 17 273 0.0 3.2 0.00 0.00 0.00 48 1017.0
20260503182719 17 273 0.0 3.2 0.00 0.00 0.00 47 1016.9
20260503182619 17 274 1.6 3.2 0.00 0.00 0.00 47 1017.0
20260503182519 17 271 1.6 3.2 0.00 0.00 0.00 47 1017.2
20260503182419 17 268 0.0 3.2 0.00 0.00 0.00 47 1016.9
20260503182319 17 263 0.0 3.2 0.00 0.00 0.00 48 1016.9
20260503182219 17 266 0.0 3.2 0.00 0.00 0.00 48 1017.0
20260503182119 17 270 0.0 3.2 0.00 0.00 0.00 48 1016.8
20260503182019 17 274 0.0 3.2 0.00 0.00 0.00 48 1016.9
20260503181919 17 278 0.0 3.2 0.00 0.00 0.00 48 1016.9
20260503181819 17 279 0.0 3.2 0.00 0.00 0.00 48 1017.1
20260503181719 17 282 0.0 3.2 0.00 0.00 0.00 48 1016.8
20260503181619 17 284 0.0 6.4 0.00 0.00 0.00 48 1017.0
20260503181519 17 286 1.6 6.4 0.00 0.00 0.00 48 1016.9
20260503181419 17 285 1.6 6.4 0.00 0.00 0.00 48 1017.0
20260503181319 17 284 0.0 6.4 0.00 0.00 0.00 47 1016.7
20260503181219 17 284 1.6 6.4 0.00 0.00 0.00 48 1017.0
20260503181119 17 283 1.6 6.4 0.00 0.00 0.00 47 1017.0
20260503181019 17 282 3.2 6.4 0.00 0.00 0.00 48 1017.0
20260503180918 17 281 1.6 6.4 0.00 0.00 0.00 48 1016.9
20260503180819 17 278 3.2 6.4 0.00 0.00 0.00 49 1016.9
20260503180719 17 274 3.2 6.4 0.00 0.00 0.00 49 1016.8
20260503180619 17 263 1.6 3.2 0.00 0.00 0.00 49 1016.9
20260503180519 17 253 0.0 3.2 0.00 0.00 0.00 49 1016.9
20260503180419 17 247 0.0 3.2 0.00 0.00 0.00 49 1017.1
20260503180319 17 0 0.0 0.0 0.00 0.00 0.00 49 1016.9
20260503180219 17 0 0.0 0.0 0.00 0.00 0.00 49 1016.8
20260503180119 17 0 0.0 0.0 0.00 0.00 0.00 49 1017.1
20260503180019 17 0 0.0 0.0 0.00 0.00 0.00 49 1017.0
20260503175919 17 0 0.0 0.0 0.00 0.00 0.00 49 1016.9
20260503175819 17 0 0.0 0.0 0.00 0.00 0.00 48 1016.7
20260503175719 17 0 0.0 0.0 0.00 0.00 0.00 48 1016.9
20260503175618 17 0 0.0 0.0 0.00 0.00 0.00 48 1016.8
20260503175519 17 0 0.0 0.0 0.00 0.00 0.00 48 1016.9
20260503175419 17 0 0.0 0.0 0.00 0.00 0.00 48 1016.7
20260503175318 17 0 0.0 0.0 0.00 0.00 0.00 48 1016.8
20260503175219 17 0 0.0 0.0 0.00 0.00 0.00 48 1016.8
20260503175119 17 0 0.0 0.0 0.00 0.00 0.00 48 1016.9
20260503175019 17 0 0.0 0.0 0.00 0.00 0.00 48 1016.9
20260503174919 17 0 0.0 0.0 0.00 0.00 0.00 48 1016.9
20260503174819 17 112 0.0 3.2 0.00 0.00 0.00 48 1016.8
20260503174719 17 112 0.0 3.2 0.00 0.00 0.00 49 1016.8
20260503174619 17 112 0.0 3.2 0.00 0.00 0.00 49 1016.7
20260503174519 17 112 0.0 3.2 0.00 0.00 0.00 49 1016.8
20260503174419 17 112 0.0 3.2 0.00 0.00 0.00 49 1016.7
20260503174318 17 112 0.0 3.2 0.00 0.00 0.00 48 1016.8
20260503174219 17 112 0.0 3.2 0.00 0.00 0.00 48 1016.8
20260503174119 17 112 0.0 3.2 0.00 0.00 0.00 48 1016.9
20260503174019 17 112 0.0 3.2 0.00 0.00 0.00 48 1016.7
20260503173919 18 112 0.0 3.2 0.00 0.00 0.00 48 1016.9
20260503173819 18 112 0.0 3.2 0.00 0.00 0.00 48 1016.6
20260503173719 18 112 0.0 3.2 0.00 0.00 0.00 47 1016.9
20260503173619 18 112 0.0 3.2 0.00 0.00 0.00 47 1016.5
20260503173519 18 0 0.0 0.0 0.00 0.00 0.00 48 1016.9
20260503173418 18 0 0.0 0.0 0.00 0.00 0.00 48 1016.8
20260503173319 18 0 0.0 0.0 0.00 0.00 0.00 48 1016.7
20260503173219 18 0 0.0 0.0 0.00 0.00 0.00 47 1016.8
20260503173118 18 0 0.0 0.0 0.00 0.00 0.00 48 1017.1
20260503173019 18 0 0.0 0.0 0.00 0.00 0.00 48 1016.8
20260503172919 18 0 0.0 0.0 0.00 0.00 0.00 47 1016.8
20260503172819 18 0 0.0 0.0 0.00 0.00 0.00 47 1016.9
20260503172719 18 112 0.0 3.2 0.00 0.00 0.00 47 1016.8
20260503172619 18 112 0.0 3.2 0.00 0.00 0.00 47 1016.7
20260503172519 18 112 0.0 3.2 0.00 0.00 0.00 47 1016.8
20260503172419 18 112 0.0 3.2 0.00 0.00 0.00 47 1017.0
20260503172318 18 112 0.0 3.2 0.00 0.00 0.00 47 1016.7
20260503172219 18 112 0.0 3.2 0.00 0.00 0.00 47 1016.9
20260503172119 18 112 0.0 3.2 0.00 0.00 0.00 47 1016.8
20260503172019 18 115 0.0 3.2 0.00 0.00 0.00 48 1017.0
20260503171919 18 117 0.0 3.2 0.00 0.00 0.00 47 1016.9
20260503171819 18 119 0.0 3.2 0.00 0.00 0.00 47 1016.9
20260503171719 18 122 0.0 3.2 0.00 0.00 0.00 47 1016.7
20260503171619 18 122 1.6 3.2 0.00 0.00 0.00 46 1016.7
20260503171519 18 122 1.6 3.2 0.00 0.00 0.00 46 1016.9
20260503171419 18 125 1.6 3.2 0.00 0.00 0.00 46 1016.9
20260503171319 18 130 3.2 3.2 0.00 0.00 0.00 45 1016.8
20260503171219 18 134 1.6 3.2 0.00 0.00 0.00 45 1016.8
20260503171118 18 134 1.6 3.2 0.00 0.00 0.00 45 1016.8
20260503171019 18 135 1.6 3.2 0.00 0.00 0.00 44 1016.7
20260503170918 18 135 1.6 6.4 0.00 0.00 0.00 45 1016.8
20260503170819 18 135 1.6 6.4 0.00 0.00 0.00 44 1016.9
20260503170719 18 136 1.6 6.4 0.00 0.00 0.00 45 1016.8
20260503170619 18 141 1.6 6.4 0.00 0.00 0.00 45 1016.8
20260503170519 18 141 0.0 6.4 0.00 0.00 0.00 45 1017.1
20260503170418 18 143 3.2 6.4 0.00 0.00 0.00 45 1016.8
20260503170319 18 142 1.6 6.4 0.00 0.00 0.00 44 1016.9
20260503160218 20 118 3.2 9.7 0.00 0.00 0.00 43 1016.8
20260503160118 20 121 4.8 9.7 0.00 0.00 0.00 42 1016.9
20260503150918 20 97 3.2 11.3 0.00 0.00 0.00 41 1016.7
20260503150819 20 99 6.4 11.3 0.00 0.00 0.00 40 1016.8
20260503150719 20 98 9.7 11.3 0.00 0.00 0.00 40 1016.9
20260503150618 21 101 6.4 9.7 0.00 0.00 0.00 40 1016.6
20260503150519 21 98 6.4 9.7 0.00 0.00 0.00 40 1016.8
20260503150418 21 96 4.8 9.7 0.00 0.00 0.00 41 1016.9
20260503150319 21 93 3.2 9.7 0.00 0.00 0.00 41 1016.7
20260503150219 20 89 6.4 9.7 0.00 0.00 0.00 40 1016.7
20260503150119 20 90 6.4 9.7 0.00 0.00 0.00 40 1016.8
20260503140218 21 120 4.8 17.7 0.00 0.00 0.00 39 1017.2
20260503140118 21 120 8.0 17.7 0.00 0.00 0.00 39 1017.4
20260503131418 20 151 12.9 17.7 0.00 0.00 0.00 39 1017.5
20260503131318 21 144 9.7 12.9 0.00 0.00 0.00 40 1017.6
20260503131218 21 143 6.4 12.9 0.00 0.00 0.00 42 1017.7
20260503131118 21 133 6.4 12.9 0.00 0.00 0.00 42 1017.6
20260503131018 21 123 4.8 12.9 0.00 0.00 0.00 41 1017.8
20260503130918 20 123 4.8 12.9 0.00 0.00 0.00 40 1017.7
20260503130818 20 122 6.4 12.9 0.00 0.00 0.00 41 1017.4
20260503130718 21 121 6.4 12.9 0.00 0.00 0.00 39 1017.6
20260503130618 21 115 4.8 12.9 0.00 0.00 0.00 40 1017.5
20260503130518 21 105 9.7 17.7 0.00 0.00 0.00 40 1017.8
20260503130418 21 98 8.0 17.7 0.00 0.00 0.00 40 1017.8
20260503130318 21 90 3.2 17.7 0.00 0.00 0.00 42 1017.5
20260503130218 21 89 1.6 17.7 0.00 0.00 0.00 40 1017.4
20260503130118 21 89 3.2 17.7 0.00 0.00 0.00 38 1017.7
20260503120218 21 121 9.7 20.9 0.00 0.00 0.00 43 1018.4
20260503120118 21 116 12.9 20.9 0.00 0.00 0.00 40 1018.2
20260503110818 21 154 6.4 12.9 0.00 0.00 0.00 39 1018.3
20260503110718 21 157 3.2 12.9 0.00 0.00 0.00 37 1018.3
20260503110618 20 153 3.2 12.9 0.00 0.00 0.00 36 1018.3
20260503110518 20 142 4.8 12.9 0.00 0.00 0.00 36 1018.4
20260503110418 20 136 8.0 12.9 0.00 0.00 0.00 36 1018.3
20260503110318 20 129 6.4 12.9 0.00 0.00 0.00 37 1018.3
20260503110218 20 127 8.0 12.9 0.00 0.00 0.00 35 1018.3
20260503110118 20 118 8.0 12.9 0.00 0.00 0.00 35 1018.4
20260503100218 21 80 3.2 17.7 0.00 0.00 0.00 37 1018.9
20260503100118 21 88 4.8 17.7 0.00 0.00 0.00 41 1018.8
20260503090418 20 121 3.2 9.7 0.00 0.00 0.00 38 1019.1
20260503090318 20 123 1.6 9.7 0.00 0.00 0.00 38 1019.3
20260503090218 20 123 6.4 9.7 0.00 0.00 0.00 38 1019.4
20260503090118 20 124 6.4 9.7 0.00 0.00 0.00 43 1019.2
20260503081618 20 119 6.4 11.3 0.00 0.00 0.00 36 1019.3
20260503081518 20 123 3.2 6.4 0.00 0.00 0.00 37 1019.3
20260503081418 20 122 4.8 6.4 0.00 0.00 0.00 38 1019.3
20260503081318 20 125 4.8 6.4 0.00 0.00 0.00 39 1019.4
20260503081218 20 125 3.2 6.4 0.00 0.00 0.00 39 1019.3
20260503081118 20 119 4.8 6.4 0.00 0.00 0.00 36 1019.2
20260503081018 20 108 3.2 6.4 0.00 0.00 0.00 37 1019.2
20260503080918 20 108 3.2 6.4 0.00 0.00 0.00 35 1019.4
20260503080818 20 104 3.2 6.4 0.00 0.00 0.00 36 1019.4
20260503080718 20 95 0.0 3.2 0.00 0.00 0.00 34 1019.2
20260503080618 20 91 3.2 3.2 0.00 0.00 0.00 34 1019.4
20260503080517 20 83 1.6 6.4 0.00 0.00 0.00 35 1019.1
20260503080418 20 79 1.6 6.4 0.00 0.00 0.00 37 1019.2
20260503080318 20 78 0.0 6.4 0.00 0.00 0.00 36 1019.1
20260503080218 20 78 1.6 6.4 0.00 0.00 0.00 36 1019.1
20260503080118 20 78 3.2 6.4 0.00 0.00 0.00 35 1019.3
20260503072918 20 190 0.0 6.4 0.00 0.00 0.00 33 1019.2
20260503072817 19 196 0.0 6.4 0.00 0.00 0.00 34 1019.3
20260503072718 18 201 3.2 6.4 0.00 0.00 0.00 34 1019.3
20260503072618 18 204 3.2 6.4 0.00 0.00 0.00 34 1019.2
20260503072518 18 209 3.2 6.4 0.00 0.00 0.00 34 1019.3
20260503072418 18 216 3.2 6.4 0.00 0.00 0.00 35 1019.2
20260503072318 18 224 3.2 6.4 0.00 0.00 0.00 35 1019.2
20260503072218 18 232 3.2 6.4 0.00 0.00 0.00 35 1019.2
20260503072118 19 241 3.2 6.4 0.00 0.00 0.00 34 1019.3
20260503072018 19 245 0.0 6.4 0.00 0.00 0.00 34 1019.3
20260503071918 18 245 0.0 6.4 0.00 0.00 0.00 34 1019.3
20260503071818 18 246 0.0 6.4 0.00 0.00 0.00 35 1019.2
20260503071717 18 246 1.6 6.4 0.00 0.00 0.00 36 1019.1
20260503071618 18 246 1.6 6.4 0.00 0.00 0.00 34 1019.2
20260503071518 18 246 3.2 6.4 0.00 0.00 0.00 36 1019.3
20260503071418 18 246 3.2 6.4 0.00 0.00 0.00 34 1019.4
20260503071318 18 246 1.6 6.4 0.00 0.00 0.00 39 1019.4
20260503071218 18 246 1.6 6.4 0.00 0.00 0.00 38 1019.4
20260503071117 18 245 3.2 6.4 0.00 0.00 0.00 38 1019.3
20260503071017 18 245 3.2 9.7 0.00 0.00 0.00 36 1019.3
20260503070918 18 245 3.2 9.7 0.00 0.00 0.00 36 1019.3
20260503070818 18 244 3.2 9.7 0.00 0.00 0.00 39 1019.3
20260503070718 18 244 3.2 9.7 0.00 0.00 0.00 38 1019.3
20260503070618 18 242 3.2 9.7 0.00 0.00 0.00 39 1019.2
20260503070518 18 242 4.8 9.7 0.00 0.00 0.00 38 1019.3
20260503070418 18 242 3.2 9.7 0.00 0.00 0.00 40 1019.3
20260503070318 18 241 3.2 9.7 0.00 0.00 0.00 37 1019.2
20260503070218 18 241 3.2 9.7 0.00 0.00 0.00 39 1019.3
20260503070118 18 242 4.8 9.7 0.00 0.00 0.00 37 1019.1
20260503060318 15 290 1.6 3.2 0.00 0.00 0.00 48 1019.2
20260503060218 15 292 1.6 3.2 0.00 0.00 0.00 46 1019.4
20260503060118 15 294 1.6 3.2 0.00 0.00 0.00 49 1019.1
20260503055118 14 294 1.6 3.2 0.00 0.00 0.00 52 1019.2
20260503055018 14 292 3.2 3.2 0.00 0.00 0.00 50 1019.1
20260503054917 15 292 1.6 3.2 0.00 0.00 0.00 52 1019.1
20260503054817 14 292 0.0 3.2 0.00 0.00 0.00 50 1019.1
20260503054718 15 291 1.6 3.2 0.00 0.00 0.00 54 1019.0
20260503054618 14 291 1.6 6.4 0.00 0.00 0.00 50 1019.2
20260503054518 14 291 1.6 6.4 0.00 0.00 0.00 50 1019.0
20260503054418 15 291 1.6 6.4 0.00 0.00 0.00 50 1018.9
20260503054318 14 291 3.2 6.4 0.00 0.00 0.00 47 1019.2
20260503054218 14 291 3.2 6.4 0.00 0.00 0.00 45 1019.1
20260503054117 14 291 3.2 6.4 0.00 0.00 0.00 44 1019.0
20260503054017 14 291 3.2 6.4 0.00 0.00 0.00 44 1018.9
20260503053918 14 293 3.2 6.4 0.00 0.00 0.00 44 1019.0
20260503053818 14 293 1.6 6.4 0.00 0.00 0.00 45 1018.9
20260503053717 14 294 1.6 6.4 0.00 0.00 0.00 46 1019.2
20260503053618 13 294 3.2 6.4 0.00 0.00 0.00 46 1019.0
20260503053517 13 294 3.2 6.4 0.00 0.00 0.00 46 1019.0
20260503053418 13 294 3.2 6.4 0.00 0.00 0.00 46 1019.0
20260503053318 13 294 3.2 6.4 0.00 0.00 0.00 47 1019.1
20260503053218 13 294 1.6 6.4 0.00 0.00 0.00 46 1019.1
20260503053118 13 294 3.2 6.4 0.00 0.00 0.00 46 1018.9
20260503053018 13 292 3.2 6.4 0.00 0.00 0.00 46 1018.9
20260503052917 13 289 3.2 6.4 0.00 0.00 0.00 47 1018.8
20260503052818 13 290 3.2 6.4 0.00 0.00 0.00 46 1019.0
20260503052718 13 290 3.2 6.4 0.00 0.00 0.00 45 1019.0
20260503052618 13 289 4.8 6.4 0.00 0.00 0.00 47 1018.9
20260503052518 13 289 4.8 6.4 0.00 0.00 0.00 48 1018.9
20260503052418 13 288 3.2 6.4 0.00 0.00 0.00 47 1018.9
20260503052318 13 288 3.2 6.4 0.00 0.00 0.00 47 1019.0
20260503052218 13 286 3.2 6.4 0.00 0.00 0.00 49 1019.1
20260503052118 13 286 1.6 6.4 0.00 0.00 0.00 47 1018.9
20260503052018 13 288 1.6 6.4 0.00 0.00 0.00 47 1018.8
20260503051918 13 289 3.2 6.4 0.00 0.00 0.00 48 1019.1
20260503051817 13 289 3.2 6.4 0.00 0.00 0.00 50 1019.0
20260503051717 13 289 1.6 6.4 0.00 0.00 0.00 49 1018.8
20260503051618 13 290 3.2 6.4 0.00 0.00 0.00 48 1018.9
20260503051518 13 290 0.0 6.4 0.00 0.00 0.00 47 1019.1
20260503051417 13 290 3.2 6.4 0.00 0.00 0.00 45 1019.1
20260503051317 13 290 3.2 6.4 0.00 0.00 0.00 45 1018.8
20260503051218 13 291 3.2 6.4 0.00 0.00 0.00 46 1019.0
20260503051117 13 290 3.2 6.4 0.00 0.00 0.00 45 1018.8
20260503051017 13 289 3.2 6.4 0.00 0.00 0.00 45 1018.9
20260503050918 13 288 3.2 6.4 0.00 0.00 0.00 45 1019.0
20260503050817 13 288 3.2 6.4 0.00 0.00 0.00 44 1018.9
20260503050718 13 287 3.2 6.4 0.00 0.00 0.00 45 1018.9
20260503050617 13 286 3.2 6.4 0.00 0.00 0.00 45 1019.0
20260503050517 13 284 3.2 6.4 0.00 0.00 0.00 45 1018.8
20260503050418 13 282 3.2 6.4 0.00 0.00 0.00 45 1018.9
20260503050318 13 281 1.6 6.4 0.00 0.00 0.00 44 1018.9
20260503050217 13 283 1.6 6.4 0.00 0.00 0.00 43 1019.0
20260503050117 13 286 3.2 6.4 0.00 0.00 0.00 42 1019.0
20260503050018 13 287 3.2 6.4 0.00 0.00 0.00 43 1019.0
20260503045918 13 287 3.2 6.4 0.00 0.00 0.00 43 1018.7
20260503045817 13 286 1.6 6.4 0.00 0.00 0.00 44 1018.8
20260503045718 13 286 3.2 6.4 0.00 0.00 0.00 42 1018.9
20260503045618 13 287 3.2 6.4 0.00 0.00 0.00 44 1019.0
20260503045518 13 286 1.6 6.4 0.00 0.00 0.00 47 1018.9
20260503045418 13 287 3.2 6.4 0.00 0.00 0.00 47 1018.8
20260503045318 13 286 3.2 6.4 0.00 0.00 0.00 46 1018.9
20260503045217 13 284 3.2 6.4 0.00 0.00 0.00 46 1018.7
20260503045118 13 281 3.2 6.4 0.00 0.00 0.00 46 1019.0
20260503045017 13 281 3.2 6.4 0.00 0.00 0.00 45 1019.0
20260503044918 13 279 3.2 6.4 0.00 0.00 0.00 45 1018.8
20260503044818 13 278 1.6 6.4 0.00 0.00 0.00 44 1018.9
20260503044717 13 279 1.6 6.4 0.00 0.00 0.00 43 1018.7
20260503044618 13 281 3.2 6.4 0.00 0.00 0.00 43 1018.7
20260503044518 13 283 1.6 6.4 0.00 0.00 0.00 44 1019.0
20260503044418 13 285 1.6 6.4 0.00 0.00 0.00 44 1018.9
20260503044317 13 286 1.6 6.4 0.00 0.00 0.00 46 1018.9
20260503044217 12 288 3.2 6.4 0.00 0.00 0.00 46 1019.0
20260503044117 13 289 3.2 6.4 0.00 0.00 0.00 46 1019.0
20260503044017 13 288 3.2 6.4 0.00 0.00 0.00 46 1019.0
20260503043918 13 288 3.2 6.4 0.00 0.00 0.00 45 1019.0
20260503043817 13 288 3.2 6.4 0.00 0.00 0.00 45 1018.9
20260503043717 12 288 3.2 6.4 0.00 0.00 0.00 46 1019.0
20260503043618 12 287 3.2 6.4 0.00 0.00 0.00 45 1018.9
20260503043518 13 287 3.2 6.4 0.00 0.00 0.00 45 1019.0
20260503043418 13 287 3.2 6.4 0.00 0.00 0.00 45 1019.0
20260503043318 12 286 3.2 6.4 0.00 0.00 0.00 45 1019.1
20260503043217 12 287 1.6 6.4 0.00 0.00 0.00 46 1018.9
20260503043117 12 287 1.6 6.4 0.00 0.00 0.00 46 1018.8
20260503043017 12 289 0.0 6.4 0.00 0.00 0.00 46 1019.0
20260503042918 12 290 0.0 6.4 0.00 0.00 0.00 46 1018.8
20260503042817 12 292 3.2 6.4 0.00 0.00 0.00 47 1018.8
20260503042717 12 292 3.2 6.4 0.00 0.00 0.00 47 1018.7
20260503042618 12 291 1.6 6.4 0.00 0.00 0.00 48 1019.0
20260503042517 12 291 1.6 6.4 0.00 0.00 0.00 48 1018.8
20260503042417 12 291 1.6 6.4 0.00 0.00 0.00 48 1018.8
20260503042317 12 291 3.2 6.4 0.00 0.00 0.00 48 1018.9
20260503042217 12 291 3.2 6.4 0.00 0.00 0.00 48 1018.8
20260503042117 12 291 1.6 6.4 0.00 0.00 0.00 47 1018.8
20260503042018 12 291 3.2 6.4 0.00 0.00 0.00 46 1018.8
20260503041918 12 291 3.2 6.4 0.00 0.00 0.00 46 1018.9
20260503041817 13 291 1.6 6.4 0.00 0.00 0.00 45 1018.9
20260503041718 13 291 3.2 6.4 0.00 0.00 0.00 44 1019.0
20260503041617 13 292 3.2 6.4 0.00 0.00 0.00 44 1018.7
20260503041517 13 292 4.8 6.4 0.00 0.00 0.00 43 1018.8
20260503041417 13 292 3.2 6.4 0.00 0.00 0.00 43 1018.6
20260503041317 13 292 4.8 6.4 0.00 0.00 0.00 44 1018.7
20260503041217 12 292 4.8 6.4 0.00 0.00 0.00 45 1018.8
20260503041117 12 292 4.8 6.4 0.00 0.00 0.00 47 1018.8
20260503041017 12 292 4.8 6.4 0.00 0.00 0.00 47 1018.9
20260503040918 12 292 4.8 6.4 0.00 0.00 0.00 49 1019.0
20260503040817 11 292 3.2 9.7 0.00 0.00 0.00 49 1018.8
20260503040717 11 292 4.8 9.7 0.00 0.00 0.00 49 1018.7
20260503040617 11 292 4.8 9.7 0.00 0.00 0.00 49 1018.9
20260503040517 11 292 4.8 9.7 0.00 0.00 0.00 49 1018.8
20260503040417 11 292 4.8 9.7 0.00 0.00 0.00 49 1018.8
20260503040317 11 292 6.4 9.7 0.00 0.00 0.00 49 1019.0
20260503040217 11 292 6.4 9.7 0.00 0.00 0.00 49 1018.6
20260503040117 11 292 6.4 11.3 0.00 0.00 0.00 50 1018.8
20260503040018 11 292 6.4 11.3 0.00 0.00 0.00 49 1018.7
20260503035918 11 292 6.4 11.3 0.00 0.00 0.00 50 1018.5
20260503035817 11 292 6.4 11.3 0.00 0.00 0.00 50 1018.7
20260503035717 11 292 6.4 11.3 0.00 0.00 0.00 50 1018.8
20260503035617 11 292 6.4 11.3 0.00 0.00 0.00 49 1018.7
20260503035517 12 292 6.4 11.3 0.00 0.00 0.00 48 1018.5
20260503035417 12 292 6.4 11.3 0.00 0.00 0.00 49 1018.5
20260503035317 12 292 6.4 11.3 0.00 0.00 0.00 49 1018.9
20260503035217 11 292 6.4 12.9 0.00 0.00 0.00 49 1018.7